Temp
77 77 77 77 77 77 76 75 75 74 74 74 74 74 73 71 71 70 69 69 68 68 68 67 67 68 69 69 69 68 68 68 68 69 68 70 71 72 73 73 74 73 74
78 77 77 77 77 76 75 76 75 74 74 74 74 73 73 72 71 71 70 71 69 68 68 67 68 69 67 68 69 67 68 67 68 66 67 69 70 71 72 71 73 75 74
79 78 77 77 76 75 76 77 75 74 73 74 73 73 73 72 71 72 71 71 70 70 69 68 69 68 67 68 68 69 68 67 66 67 68 68 69 70 69 69 70 71 73
80 78 77 77 76 77 77 77 75 75 74 73 73 74 73 73 72 72 72 71 71 71 70 70 69 69 68 68 67 67 67 66 66 65 65 66 68 69 67 66 68 68 70
78 78 77 77 77 77 76 76 76 76 75 74 74 74 74 74 75 72 72 71 71 71 70 70 70 70 69 68 69 68 67 66 66 64 64 61 66 66 65 64 66 64 67
78 77 77 77 77 76 75 76 75 75 75 74 73 74 73 75 70 68 72 72 71 71 69 70 71 69 69 67 67 67 68 67 66 65 65 63 66 65 63 66 64 65 65
77 77 77 77 76 76 76 75 75 74 75 75 74 74 73 74 66 66 68 73 72 70 70 69 69 71 68 69 66 66 66 66 67 68 67 64 66 64 66 65 64 63 64
77 77 77 76 76 76 76 75 75 76 75 75 73 74 74 74 64 64 67 73 71 70 70 69 70 69 68 68 69 68 68 68 67 68 66 69 68 67 67 66 65 63 63
76 76 77 77 76 76 75 75 76 76 75 75 76 73 73 73 62 62 65 71 69 69 69 70 69 69 65 63 68 68 68 67 63 62 62 62 61 61 64 64 62 61 62
77 77 78 77 76 76 76 76 77 77 76 76 75 74 71 74 61 60 64 73 69 68 69 69 64 68 59 59 68 67 66 67 66 61 65 62 62 63 61 66 66 63 61
79 79 78 78 77 77 77 77 77 77 76 75 75 75 73 72 69 58 59 71 69 68 68 67 68 59 55 55 59 67 66 64 62 64 64 64 64 65 65 64 64 65 61
77 78 77 77 78 79 77 77 77 75 75 75 74 73 72 73 63 57 57 64 65 69 68 66 66 55 53 52 56 57 56 60 64 63 63 63 63 64 64 64 62 64 65
75 74 75 76 77 78 76 75 75 75 75 74 73 72 72 72 68 56 57 59 61 67 66 63 56 51 50 52 54 55 56 64 63 62 62 62 63 64 62 62 61 60 60
72 72 72 73 74 76 76 76 75 75 74 73 72 72 71 67 65 63 64 64 60 61 58 59 57 57 57 58 57 57 61 63 63 62 61 62 61 61 62 62 62 60 60
70 70 69 69 62 61 60 58 63 59 64 73 73 71 66 64 63 61 62 63 63 58 58 60 60 60 59 58 58 57 59 60 60 59 60 60 61 60 60 59 59 58 58
65 64 63 63 64 64 64 62 52 53 53 51 53 58 64 58 53 54 53 53 51 52 59 60 59 59 59 59 58 57 58 58 59 60 60 61 61 60 60 58 57 57 57
64 64 64 64 63 62 62 61 60 59 51 52 53 55 53 53 51 48 46 46 48 55 62 61 61 59 60 60 59 59 59 60 59 60 60 60 60 59 57 58 57 56 57
66 58 65 64 64 63 63 62 62 61 61 61 48 46 45 47 45 44 46 50 56 58 63 61 60 59 60 60 59 59 60 60 60 60 59 59 58 58 57 57 56 56 56
64 65 66 64 64 62 64 63 62 62 61 61 53 49 45 43 46 48 49 60 60 60 60 61 62 61 61 61 60 60 59 59 58 57 57 57 57 58 57 57 57 50 52
63 60 61 63 62 63 63 63 62 62 59 57 57 55 52 53 56 58 59 61 61 60 60 60 60 60 60 59 58 57 56 56 56 57 57 57 57 57 58 57 57 57 57
64 63 60 62 62 63 62 61 60 60 60 60 59 55 51 61 59 58 58 59 60 60 58 59 57 58 57 57 57 58 59 59 58 58 57 56 56 56 57 57 57 57 57
64 64 63 62 62 61 60 60 60 60 60 58 54 53 48 61 60 59 59 60 60 61 60 59 59 59 60 60 59 60 59 59 58 57 57 56 56 57 57 57 57 57 57
65 63 62 62 62 58 60 60 60 60 59 59 58 57 59 60 60 59 59 60 60 59 60 61 60 59 60 61 61 60 59 59 59 57 56 55 55 56 56 56 57 57 57
65 63 62 60 61 61 61 60 60 54 59 58 58 59 59 60 61 60 61 61 60 60 60 61 62 63 61 60 60 60 60 60 58 57 56 56 56 51 55 55 56 56 57
63 63 63 62 63 61 61 59 58 58 57 56 55 55 56 56 57 60 61 61 61 61 61 61 62 62 58 59 59 59 52 41 53 49 56 56 55 53 55 56 56 56 56
63 62 60 60 60 59 60 60 59 59 59 58 57 56 55 55 55 57 61 61 61 62 62 62 62 62 61 61 60 51 37 37 46 41 55 55 54 54 54 55 55 57 56
MSLP
1006.41 1007.12 1007.88 1008.62 1009.43 1010.06 1010.54 1010.91 1011.51 1012.21 1012.75 1013.30 1013.82 1014.33 1014.81 1015.31 1015.83 1016.37 1016.90 1017.37 1017.84 1018.20 1018.53 1018.80 1019.06 1019.29 1019.53 1019.79 1019.97 1020.09 1020.20 1020.34 1020.47 1020.47 1020.77 1020.68 1020.54 1020.44 1020.30 1020.34 1020.43 1020.53 1020.46
1005.04 1005.98 1006.60 1007.44 1008.27 1009.04 1009.56 1010.05 1010.77 1011.32 1011.96 1012.51 1013.07 1013.61 1014.08 1014.55 1015.08 1015.55 1016.14 1016.63 1017.23 1017.76 1018.05 1018.46 1018.54 1018.93 1019.16 1019.36 1019.60 1019.66 1019.76 1020.01 1020.20 1020.37 1020.27 1020.29 1020.33 1020.14 1020.14 1020.31 1020.24 1019.99 1019.82
1004.09 1004.86 1005.73 1006.45 1007.26 1007.93 1008.43 1009.02 1009.76 1010.39 1010.96 1011.64 1012.18 1012.67 1013.17 1013.65 1014.19 1014.61 1015.14 1015.81 1016.31 1016.76 1017.21 1017.63 1017.87 1018.36 1018.62 1018.85 1019.11 1019.39 1019.74 1020.01 1020.20 1020.30 1020.25 1020.27 1020.21 1020.36 1020.27 1019.96 1019.85 1019.73 1019.73
1002.90 1003.72 1004.38 1005.02 1005.59 1006.21 1007.01 1007.86 1008.56 1009.16 1009.91 1010.47 1010.94 1011.53 1012.11 1012.68 1013.21 1013.72 1014.32 1014.92 1015.41 1015.80 1016.19 1016.62 1017.03 1017.47 1017.73 1018.06 1018.46 1018.82 1019.28 1019.56 1019.83 1020.29 1020.43 1020.39 1020.41 1020.29 1020.09 1019.91 1019.88 1019.90 1019.92
1001.97 1002.68 1003.04 1003.89 1004.57 1005.25 1005.99 1006.67 1007.40 1008.03 1008.50 1009.20 1009.93 1010.53 1011.10 1011.67 1012.15 1012.77 1013.38 1013.96 1014.42 1014.80 1015.27 1015.68 1016.13 1016.45 1016.89 1017.21 1017.75 1018.09 1018.50 1018.96 1019.24 1019.57 1020.03 1020.23 1020.03 1019.83 1019.99 1020.16 1019.89 1019.69 1019.47
1000.33 1000.78 1001.77 1002.87 1003.60 1004.19 1004.87 1005.52 1006.27 1006.76 1007.38 1008.12 1008.71 1009.41 1010.17 1010.55 1010.93 1011.68 1012.45 1012.99 1013.40 1013.87 1014.34 1014.76 1015.32 1015.74 1016.12 1016.50 1016.89 1017.29 1017.60 1017.96 1018.34 1018.48 1018.68 1019.11 1019.21 1019.40 1019.41 1019.49 1019.75 1019.62 1019.28
998.84 999.44 1000.44 1001.33 1002.13 1002.77 1003.60 1004.32 1004.79 1005.39 1006.24 1006.84 1007.57 1008.36 1008.86 1009.42 1010.01 1010.75 1011.43 1011.88 1012.32 1012.84 1013.28 1013.74 1014.35 1014.66 1015.17 1015.55 1016.12 1016.57 1017.10 1017.38 1017.33 1017.81 1018.19 1018.41 1018.56 1018.64 1018.87 1018.99 1019.27 1019.49 1019.20
997.92 998.71 999.46 1000.12 1000.68 1001.77 1002.70 1003.11 1003.53 1004.23 1004.85 1005.44 1006.06 1006.69 1007.57 1008.10 1008.88 1009.53 1010.18 1010.78 1011.22 1011.60 1011.98 1012.42 1012.86 1013.35 1013.88 1014.55 1015.25 1015.78 1016.28 1016.66 1017.00 1017.19 1017.44 1017.61 1017.83 1018.25 1018.23 1018.60 1018.82 1019.14 1019.13
997.27 997.88 998.46 999.01 999.65 1000.46 1001.17 1001.53 1002.25 1003.25 1003.73 1003.97 1004.58 1005.53 1006.04 1006.65 1007.40 1008.20 1009.28 1009.80 1010.22 1010.56 1011.02 1011.59 1011.98 1012.55 1013.00 1013.72 1014.31 1014.75 1015.22 1015.69 1016.21 1016.77 1017.02 1017.25 1017.66 1017.89 1018.11 1018.39 1018.61 1018.90 1018.94
996.20 996.21 996.95 997.64 998.43 999.11 999.52 1000.14 1000.92 1001.84 1002.73 1003.64 1003.92 1004.18 1004.83 1005.57 1006.19 1006.92 1007.95 1008.53 1009.43 1010.31 1010.85 1011.40 1011.91 1012.34 1012.97 1013.51 1013.76 1014.29 1014.67 1015.06 1015.78 1016.37 1016.84 1017.13 1017.27 1017.72 1017.88 1017.81 1018.08 1018.23 1018.81
994.63 995.64 996.14 996.60 996.99 997.32 998.16 999.66 1000.46 1001.08 1001.59 1002.28 1002.79 1003.37 1003.68 1004.28 1004.82 1005.39 1006.73 1007.73 1008.55 1009.27 1009.87 1010.68 1011.12 1011.80 1012.55 1013.37 1013.67 1014.18 1014.44 1014.50 1015.27 1015.93 1016.56 1016.66 1016.86 1017.41 1017.59 1017.57 1017.84 1017.92 1018.44
994.76 995.54 995.88 995.85 996.24 997.18 997.85 998.65 999.10 999.99 1000.65 1000.59 1001.58 1002.26 1002.63 1002.97 1004.03 1005.30 1005.61 1006.03 1006.93 1008.07 1009.04 1009.64 1010.36 1010.77 1011.39 1012.67 1013.79 1014.03 1014.34 1014.26 1014.88 1015.58 1016.21 1016.35 1016.57 1016.86 1017.31 1017.47 1017.66 1017.71 1018.13
995.08 995.63 996.06 996.73 997.37 997.98 998.52 998.97 999.86 1000.20 1000.42 1000.96 1001.02 1001.36 1001.69 1003.10 1003.05 1004.98 1004.85 1005.10 1005.61 1006.65 1008.49 1008.62 1009.87 1009.96 1010.37 1011.83 1012.85 1013.70 1014.41 1014.80 1015.01 1015.34 1015.81 1016.23 1016.21 1016.73 1017.09 1017.32 1017.63 1017.98 1018.02
994.75 995.23 995.60 996.29 997.19 998.03 998.84 999.46 1000.04 1000.41 1000.88 1001.15 1001.49 1000.99 1001.88 1002.66 1003.96 1005.00 1006.30 1006.28 1001.95 1006.97 1007.86 1010.82 1011.24 1010.91 1010.24 1011.39 1012.75 1013.77 1014.13 1014.48 1014.91 1015.15 1015.56 1015.93 1016.21 1016.56 1017.15 1017.28 1017.66 1018.07 1017.80
995.03 995.57 996.10 996.86 998.12 999.17 999.95 1000.24 1000.45 1001.41 1000.81 1000.34 1000.57 1001.08 1001.62 1002.98 1002.96 1002.44 1002.31 1003.98 1007.32 1009.21 1009.40 1011.20 1010.68 1011.03 1011.35 1011.98 1012.97 1013.45 1013.84 1014.93 1014.86 1015.34 1015.30 1015.63 1015.82 1016.23 1017.09 1017.21 1017.73 1018.12 1017.52
995.59 996.18 997.00 997.60 998.24 998.85 999.54 1000.78 1000.65 1000.40 1000.35 1001.09 1001.23 1002.12 1002.15 1002.74 1000.81 1000.63 1002.26 1002.40 1004.87 1005.83 1007.80 1009.62 1009.78 1011.66 1011.58 1012.17 1012.83 1013.43 1014.27 1014.58 1014.65 1014.91 1014.98 1015.54 1015.81 1016.26 1016.77 1017.21 1018.18 1018.05 1017.58
996.52 996.96 997.27 997.65 998.40 998.90 999.30 999.86 1000.29 1000.59 1000.32 1000.25 1001.02 1001.34 1002.66 1003.36 1004.98 1002.59 1002.15 1003.23 1005.15 1005.50 1005.67 1007.99 1009.08 1009.59 1010.55 1011.83 1012.50 1013.28 1014.01 1014.27 1014.20 1014.27 1014.69 1014.98 1015.50 1015.94 1016.80 1017.18 1017.66 1017.73 1017.20
996.92 997.33 997.38 997.58 997.94 998.22 998.51 998.82 999.04 999.41 999.96 1000.98 1001.26 1002.82 1003.34 1001.50 1004.53 1006.85 1005.07 1004.07 1005.72 1006.54 1006.78 1007.96 1008.03 1008.56 1009.82 1011.09 1012.28 1013.08 1013.56 1013.99 1013.96 1013.86 1014.56 1014.81 1015.20 1015.80 1016.67 1017.33 1017.52 1017.14 1016.67
997.32 997.84 997.83 997.75 998.17 998.32 998.47 998.70 998.90 999.48 1000.08 1000.35 999.19 1004.17 1002.88 1004.76 1003.02 1006.33 1004.95 1004.09 1005.46 1006.81 1006.87 1007.57 1007.87 1008.70 1009.79 1011.05 1011.88 1012.66 1013.08 1012.98 1013.56 1014.03 1014.58 1014.69 1014.50 1015.41 1016.29 1017.18 1017.23 1016.58 1016.00
997.91 998.35 998.03 998.14 998.63 999.02 999.02 998.90 999.38 999.64 1000.38 998.94 1000.15 1003.86 1004.39 1004.50 1004.73 1005.03 1005.09 1005.27 1006.09 1006.57 1007.08 1007.33 1008.13 1008.96 1010.05 1011.01 1011.76 1012.27 1012.67 1013.05 1013.37 1013.92 1014.32 1014.37 1014.45 1015.42 1016.23 1016.48 1016.61 1015.85 1015.24
998.06 998.45 998.43 998.81 999.54 999.83 999.41 999.69 999.80 1000.93 999.13 999.83 1002.16 1003.49 1003.22 1003.33 1003.83 1004.35 1005.07 1005.84 1006.31 1006.55 1007.11 1007.86 1008.78 1009.53 1010.30 1010.97 1011.32 1011.84 1012.34 1012.71 1013.14 1013.72 1014.05 1014.17 1014.44 1015.30 1015.86 1016.08 1015.83 1015.30 1014.70
998.12 998.56 998.53 998.74 999.57 999.43 999.61 999.84 999.90 1000.05 1000.69 1001.30 1002.58 1003.46 1003.88 1003.84 1004.08 1004.96 1005.45 1005.70 1005.97 1006.64 1007.53 1008.07 1008.70 1009.34 1009.83 1010.30 1011.00 1011.57 1012.09 1012.42 1012.90 1013.36 1013.94 1014.11 1014.43 1015.05 1015.64 1015.49 1015.27 1014.76 1014.31
999.01 999.15 999.48 999.99 1000.51 1000.28 1000.58 1001.04 1001.27 1001.69 1002.06 1002.42 1003.30 1003.73 1003.86 1004.18 1004.52 1004.88 1005.18 1005.45 1006.15 1007.05 1007.82 1008.46 1008.81 1009.33 1009.80 1010.10 1010.51 1011.22 1011.78 1011.85 1012.23 1012.78 1013.87 1014.14 1014.31 1014.88 1015.25 1014.90 1014.70 1014.28 1013.93
999.92 999.77 999.96 1000.37 1000.49 1000.85 1001.30 1001.89 1002.27 1002.51 1003.12 1003.83 1004.25 1004.38 1004.40 1004.78 1005.02 1005.18 1005.61 1006.06 1006.55 1007.31 1008.03 1008.35 1008.75 1009.21 1009.93 1010.48 1010.86 1010.82 1011.33 1011.87 1012.47 1012.65 1013.27 1013.62 1013.99 1014.43 1014.64 1014.52 1014.03 1013.76 1013.85
1000.75 1000.75 1000.83 1000.98 1000.69 1001.16 1001.68 1001.78 1002.50 1002.70 1003.33 1003.68 1003.95 1004.53 1004.97 1005.34 1005.41 1005.24 1005.72 1006.32 1006.80 1007.14 1007.56 1008.17 1008.57 1009.28 1009.96 1010.41 1010.70 1010.78 1011.15 1012.11 1012.40 1012.69 1013.10 1013.30 1013.59 1013.87 1014.11 1013.89 1013.53 1013.38 1013.77
1001.47 1001.39 1001.48 1001.87 1001.82 1001.76 1001.98 1002.66 1003.13 1003.67 1004.09 1004.37 1004.65 1005.26 1005.57 1005.74 1005.90 1006.26 1006.30 1006.38 1006.74 1007.06 1007.66 1008.05 1008.38 1009.09 1009.82 1010.11 1010.43 1010.65 1011.33 1012.12 1012.38 1012.54 1012.55 1012.70 1013.14 1013.38 1013.75 1013.40 1013.11 1013.10 1013.55
Wind_Speed
18 18 17 16 15 14 13 13 12 11 11 11 11 11 11 11 11 9 8 8 9 7 5 7 7 5 5 4 3 3 4 3 3 1 1 1 2 1 1 2 3 5 5
19 19 19 17 16 16 15 15 12 13 11 12 12 12 12 12 12 13 12 10 11 9 9 8 8 6 6 6 5 5 4 5 3 4 3 2 4 2 2 3 3 4 5
18 19 18 18 16 17 17 16 14 13 13 12 13 14 14 14 13 14 13 12 12 12 11 11 10 9 8 6 6 6 4 3 3 2 2 1 2 1 1 2 3 4 3
19 18 20 20 20 19 18 16 15 15 14 15 15 15 15 14 14 14 13 13 12 12 12 12 11 12 11 9 7 7 5 5 5 3 3 2 2 2 3 3 3 1 2
18 18 20 18 18 17 16 16 15 16 16 15 15 14 14 14 12 15 14 13 13 13 11 12 11 12 12 11 7 7 7 5 5 5 4 3 4 3 3 1 2 1 3
20 22 18 17 18 18 16 17 16 16 16 15 16 16 15 12 17 18 16 14 14 13 12 11 10 12 13 16 15 12 11 9 8 6 4 4 4 3 3 3 2 2 3
21 20 19 19 19 19 17 18 18 18 16 18 16 16 17 17 18 20 22 13 13 13 13 11 10 9 13 10 13 13 11 14 8 7 6 5 4 5 4 3 4 4 4
20 18 17 19 20 17 17 18 19 17 18 16 17 18 17 15 18 22 26 17 12 13 13 13 13 11 11 11 9 8 9 9 9 6 5 5 5 5 5 3 3 3 3
18 18 18 19 19 18 19 21 18 16 16 18 14 16 18 16 21 23 20 16 12 13 12 12 12 11 10 13 10 9 8 7 6 8 8 7 6 7 6 5 4 3 4
19 20 19 19 19 20 21 20 17 15 15 11 15 16 18 17 19 22 23 12 12 9 10 10 12 10 12 15 10 9 8 7 8 5 4 4 6 5 10 6 3 4 3
18 16 17 19 20 22 20 15 15 15 13 15 16 14 16 19 17 25 26 13 11 10 9 8 7 14 14 14 10 7 7 8 7 6 5 4 3 3 3 3 5 3 3
8 12 14 16 14 12 16 13 14 16 16 16 15 13 12 15 14 19 26 19 17 12 10 8 8 17 15 12 8 7 11 8 7 6 5 4 4 4 3 3 3 3 5
6 6 5 5 6 6 8 8 8 9 11 12 12 12 11 8 6 12 25 23 21 10 5 7 11 17 16 10 9 11 11 6 6 6 6 4 4 3 3 2 1 2 5
7 7 6 6 5 4 2 3 7 8 8 8 9 10 5 4 7 9 9 12 13 9 15 5 5 7 10 9 7 7 5 6 7 6 4 4 4 3 2 1 1 1 2
6 5 6 8 12 12 12 5 5 10 3 8 10 7 9 8 9 19 22 15 4 3 8 2 4 4 6 6 5 5 5 5 5 4 5 5 4 3 2 2 1 2 3
10 8 7 8 8 9 11 11 12 16 20 16 20 14 10 10 26 27 21 28 31 30 11 7 5 5 5 6 6 6 5 7 5 5 5 4 4 4 3 2 2 3 3
11 11 9 10 9 10 10 7 8 8 17 19 14 18 9 14 21 19 17 18 18 16 9 9 10 8 6 6 6 6 7 7 7 6 5 5 4 3 3 3 3 3 4
8 8 10 11 12 10 10 9 7 8 6 7 9 4 5 16 10 8 11 18 9 3 8 9 7 7 7 7 7 6 5 6 5 5 5 5 5 4 3 4 4 5 3
5 2 5 7 6 4 2 4 3 4 4 5 7 3 10 1 22 16 4 8 9 6 6 7 7 7 7 7 6 6 6 6 5 5 5 5 6 5 4 5 5 6 4
5 5 5 4 3 2 2 3 4 5 6 9 12 4 6 7 7 6 4 6 6 6 5 6 6 6 6 6 6 6 6 6 6 5 5 5 5 5 6 6 5 4 2
5 5 8 6 4 4 4 4 4 5 7 9 6 5 5 7 8 7 6 5 6 6 6 6 6 6 6 7 7 7 6 6 6 6 6 6 6 6 5 5 5 3 2
6 5 5 5 4 5 6 4 5 6 5 7 6 4 3 6 6 6 6 6 5 5 5 6 7 7 8 8 8 7 7 7 6 5 5 5 6 5 6 5 5 3 3
6 7 6 5 3 6 6 5 5 5 5 6 7 6 4 4 4 5 5 5 6 5 5 6 7 6 6 7 7 7 7 7 7 6 7 7 7 6 6 5 4 3 2
5 6 5 4 4 5 5 5 4 7 6 6 4 2 3 4 6 6 5 5 5 6 7 7 7 10 8 6 6 6 5 3 5 7 10 9 8 7 6 5 4 3 2
5 5 4 2 5 5 6 6 5 5 5 4 4 3 3 3 2 2 5 6 6 7 8 8 7 8 7 11 9 10 8 9 8 9 8 8 8 8 6 5 4 3 2
5 5 5 4 4 4 6 7 7 5 6 6 5 5 4 3 3 3 6 7 7 7 8 7 9 12 13 10 12 12 9 10 11 10 8 7 6 5 5 5 6 3 3
Wind_Direction
195 196 198 197 198 195 198 201 196 191 192 184 187 190 188 187 187 186 195 186 194 191 188 188 196 187 192 188 184 177 178 171 193 235 241 325 295 310 5 230 247 256 269
194 195 198 197 192 191 199 204 192 194 192 188 188 192 194 193 189 192 198 196 196 196 199 192 200 193 194 184 191 193 188 184 165 211 192 201 224 222 242 268 262 249 248
193 195 197 196 191 197 201 201 194 194 192 188 189 193 197 197 191 196 199 196 199 200 196 198 201 189 201 190 193 199 195 184 195 200 231 196 251 236 264 253 256 273 275
196 195 197 196 194 196 199 198 196 197 190 191 196 197 198 196 197 198 196 197 202 204 199 203 198 198 201 192 194 193 180 182 184 203 227 261 250 240 245 240 265 236 280
195 197 204 200 199 197 197 198 198 197 199 194 194 201 198 199 200 198 197 199 203 206 203 206 205 204 203 192 183 198 180 190 194 190 207 198 223 210 228 14 287 279 231
193 202 197 194 195 199 197 196 197 200 199 193 200 201 200 206 203 192 192 200 205 206 208 209 198 189 208 199 197 192 190 189 204 186 200 206 216 204 174 202 234 280 301
197 199 194 192 196 200 195 196 199 201 194 203 201 199 208 210 193 187 194 201 200 201 207 202 196 200 199 199 203 203 199 202 186 192 214 203 222 195 192 199 209 219 231
202 201 195 193 198 196 198 204 204 200 201 199 200 202 204 209 190 191 196 204 197 197 201 196 200 197 198 188 183 197 211 213 208 196 205 218 214 189 194 180 199 221 261
200 199 198 196 196 194 200 205 204 201 204 206 200 199 203 206 189 193 185 203 196 195 193 195 195 199 194 172 182 189 204 208 176 186 205 211 190 182 191 167 198 207 261
200 202 197 196 196 199 205 206 203 200 208 204 207 202 204 206 193 188 185 197 195 189 188 195 189 193 175 179 186 185 194 188 170 149 142 136 161 166 185 206 183 233 245
202 200 198 198 199 202 202 201 203 204 196 199 205 201 199 205 200 186 184 186 187 187 186 182 184 173 167 180 185 176 199 147 159 152 166 161 151 166 164 169 193 184 207
198 206 210 205 203 204 203 203 198 196 206 199 196 200 200 206 202 190 183 182 175 175 176 177 180 167 157 163 174 178 162 139 147 157 167 164 165 170 179 172 192 216 245
167 205 209 215 228 230 217 207 203 200 199 206 200 207 210 223 174 180 185 176 167 155 174 159 155 153 143 147 172 169 153 157 157 164 171 174 162 146 151 175 163 245 254
180 174 162 156 125 103 109 172 199 205 216 219 224 213 189 159 132 112 114 356 104 81 83 100 143 114 104 123 117 145 161 170 179 167 163 153 138 149 184 159 228 265 286
85 90 86 83 94 90 71 54 64 42 17 209 205 193 147 147 169 140 130 125 86 130 109 156 121 98 108 120 126 141 137 166 164 163 159 165 152 147 199 151 207 231 239
85 81 93 102 115 122 110 91 74 93 69 51 52 50 32 317 161 145 164 151 160 158 149 163 119 156 149 154 152 146 169 185 177 177 160 170 168 190 195 153 230 237 243
106 108 107 105 113 118 112 116 102 56 68 86 107 117 73 132 324 325 147 121 128 142 141 156 165 162 152 160 157 162 185 201 177 180 180 178 176 170 170 194 211 232 234
118 122 127 134 140 141 146 154 147 149 146 161 85 68 330 145 157 244 145 113 132 111 146 160 149 137 147 159 167 181 183 175 182 171 180 176 163 154 172 210 218 224 229
104 121 138 154 160 160 164 171 151 168 206 174 119 46 71 340 134 172 194 122 144 150 140 146 139 147 150 164 177 186 186 169 171 159 165 167 154 159 183 212 223 218 201
93 93 82 90 82 87 168 191 187 181 179 149 93 158 148 151 141 159 123 126 138 141 146 133 128 132 150 162 165 158 148 152 151 162 171 167 156 177 198 202 222 213 172
101 100 104 101 110 134 100 93 107 198 85 90 125 154 179 156 148 142 130 141 155 142 131 131 137 146 148 151 145 152 162 166 170 182 177 176 168 185 194 212 220 207 143
82 80 76 77 79 70 73 64 66 78 99 109 113 113 133 134 132 141 144 145 127 120 142 147 148 155 159 160 164 171 178 181 182 182 183 177 174 181 196 205 212 198 137
91 99 80 65 62 91 85 87 98 108 105 118 147 148 105 108 122 132 140 138 136 146 149 156 154 155 165 169 169 169 179 188 191 174 181 178 176 187 200 203 206 184 126
66 62 78 94 100 94 87 73 65 80 91 78 57 98 144 165 172 159 156 156 155 159 164 157 165 171 179 176 179 177 185 183 181 184 177 176 181 181 197 207 195 162 115
47 56 76 82 96 88 81 78 63 62 66 61 43 41 24 359 352 165 164 174 179 169 169 174 178 186 168 180 188 182 177 175 182 169 176 174 175 179 202 209 184 154 140
32 50 52 23 39 65 105 133 152 146 159 156 159 166 202 202 234 242 217 187 183 182 181 185 189 189 187 190 195 179 168 183 175 181 166 160 169 182 205 201 181 170 163